AirNav   Duncan Aviation - Near you to keep you flying
 
 1105 users online  

KNFJ Choctaw Naval Outlying Field
Milton, Florida, USA

GOING TO MILTON?


FAA INFORMATION EFFECTIVE 11 AUGUST 2022

Location

FAA Identifier: NFJ
Lat/Long: 30-30-25.0000N 086-57-35.0000W
30-30.416667N 086-57.583333W
30.5069444,-86.9597222
(estimated)
Elevation: 102 ft. / 31 m (estimated)
Variation: 02W (2010)
Time zone: UTC -5 (UTC -6 during Standard Time)
Zip code: 32566

Airport Operations

Airport use: Private use. Permission required prior to landing
Control tower: yes
ARTCC: JACKSONVILLE CENTER
FSS: GAINESVILLE FLIGHT SERVICE STATION
Attendance: MON-FRI 1330-2330Z++, ALL SAT-SUN CLSD, ALL HOLS CLSD
Segmented circle: no
Lights: AVBL ONLY DURING HRS OF OPERATION.
Beacon: white-green (lighted land airport)
Operates sunset to sunrise.

Airport Communications

ATIS: 290.55
CHOCTAW TOWER: 121.4 259.25 [OPR 1330-2330Z++MON-FRI, CLSD SAT, SUN, AND HOL.]
PENSACOLA APPROACH: 119.0 ;340-159
PENSACOLA DEPARTURE: 119.0 ;340-159
CLASS C: 119.0 ;340-159
IC: 119.0 ;340-159
WX ASOS at NDZ (12 nm N): PHONE 850-623-7210
WX ASOS at PNS (12 nm W): 121.25 (850-436-4799)
WX ASOS at NSE (13 nm N): PHONE 850-623-7241

Nearby radio navigation aids

VOR radial/distance  VOR name  Freq  Var
NUNr083/(19.6)SAUFLEY VOR108.8001E
CEWr214/24.0CRESTVIEW VORTAC115.9003E

 
NDB name  Hdg/Dist  Freq  Var  ID
PICKENS072/12.132602WPKZ .--. -.- --..

Airport Services

Runway Information

Runway 18/36

Dimensions: 8000 x 150 ft. / 2438 x 46 m
Surface: asphalt
Weight bearing capacity: 
PCN 37 /F/B/W/T
Runway edge lights: high intensity
RUNWAY 18  RUNWAY 36
Traffic pattern: leftleft

Airport Ownership and Management from official FAA records

Ownership: U.S. Navy
Owner: US NAVY
COMTRAWING 6
NAS PENSACOLA, FL 32508
Manager: COMMANDING OFFICER
OPERATIONS DEPARTMENT, 7077 USS LEXINGTON COURT
MILTON, FL 32570-6155
Phone 850-623-7755
OR 850-623-7372

Additional Remarks

FOR FLIGHT ADVISORIES CTC WHITING FIELD NAS BASE OPS DSN 868-7597 C850-623-7597. CRASH CREWS AVBL DURING OPR HRS.
RY LIGHTING MUST BE REQUESTED DURG OPNL HRS.
RSTD: MIL USE ONLY.
MISC: CTL AGENCY NAS WHITING FLD, DSN 868-7475, C850-623-7475. TWR AND CRASH CREW PERS ON STN DUR OPR HR. UNLGTD COPTER PAD ON TWY S OF CTL TWR.
AGEAR: E28 (B) 1500 FT FR EITHER END OF RWY 18-36, APP END GEAR NORM DERIGGED, DEP END GEAR NORM RIGGED, BOTH GEARS RIGGED WITH PRIOR NOTIFICATION.
RSTD: TRAWING 5 AND 6 ACFT ONLY. PPR FOR ALL OTHER ACFT. CLSD FLD OPS PROH EXC LO APCH.
FOR CD CTC PENSACOLA APCH AT 850-266-6884 OR 850-266-6885.

Instrument Procedures

There are no published instrument procedures at KNFJ.

Some nearby airports with instrument procedures:

2R4 - Peter Prince Field Airport (8 nm N)
KNDZ - Whiting Field Naval Air Station South (12 nm N)
KPNS - Pensacola International Airport (12 nm W)
KNSE - Whiting Field Naval Air Station North (13 nm N)
KHRT - Hurlburt Field Airport (15 nm E)
 
Loc | Ops | Rwys | IFR | FBO | Links
Com | Nav | Svcs | Stats | Notes
Area around KNFJ (Choctaw Naval Outlying Field)
 
Road maps at: MapQuest Bing Google
 
Aerial photo
No photo
 
Sectional chart

 
Airport distance calculator
Flying to Choctaw Naval Outlying Field? Find the distance to fly.

From to KNFJ

Sunrise and sunset
Times for 17-Aug-2022
 Local
(UTC-5)
 Zulu
(UTC)
Morning civil twilight05:5110:51
Sunrise06:1711:17
Sunset19:2700:27
Evening civil twilight19:5200:52

Current date and time
Zulu (UTC)  18-Aug-2022 02:34:43
Local (UTC-5)  17-Aug-2022 21:34:43
 
METAR
KPNS 
12nm W 
180153Z 30003KT 10SM CLR 27/23 A2995 RMK AO2 SLP141 T02670228
KNDZ 
12nm N 
180156Z 00000KT 10SM FEW035 BKN110 BKN250 24/23 A2995 RMK AO2 SLP127 T2 SET T02390233 $
KNSE 
13nm N 
180156Z 00000KT 10SM SCT043 BKN150 OVC230 23/23 A2995 RMK SLP127 T2 SET T02330228
KHRT 
16nm E 
180155Z 06002KT 10SM BKN200 26/21 A2994 RMK AO2A RAE06 SLP140 P0000 T02610213 $
TAF
KPNS 
12nm W 
171720Z 1718/1818 32008KT P6SM SKC FM172000 26009KT P6SM SCT100 FM180000 27008KT P6SM SHRA VCTS BKN050CB PROB30 1803/1808 4SM TSRA BR OVC025CB FM180800 30005KT P6SM VCTS BKN050CB PROB30 1808/1814 4SM TSRA BR OVC025CB
KNSE 
13nm N 
1801/1823 23007KT 9999 VCSH SCT040CB BKN100 OVC200 QNH2988INS FM180300 25007KT 9000 -SHRA VCTS SCT020 BKN050CB BKN120 BKN200 QNH2991INS FM180700 VRB06KT 8000 -SHRA VCTS SCT010 BKN035CB OVC100 QNH2987INS TEMPO 1808/1813 VRB20G30KT 3200 TSRA BKN010 OVC030CB FM181600 31007KT 9999 VCSH SCT015 SCT120 BKN200 QNH2993INS FM181900 VRB06KT 9999 VCSH FEW020 SCT035CB SCT250 QNH2986INS AUTOMATED SENSOR METWATCH 1804 TIL 1811 T22/1809Z T29/1819Z AMD 0031 FN20029
KHRT 
16nm E 
172350Z 1723/1824 30010KT 9999 VCTS FEW040CB FEW250 QNH2996INS TEMPO 1723/1801 35011G25KT 4800 TS BKN050CB TEMPO 1803/1807 33015G25KT 4800 TSRA BKN020CB BECMG 1806/1807 30010KT 9999 NSW SCT050 BKN100 QNH2990INS BECMG 1817/1818 24008KT 9999 FEW030 SCT100 QNH2990INS TEMPO 1821/1822 22010G15KT 6000 -TSRA BKN020CB BECMG 1822/1823 22010G15KT 9999 NSW SCT100 QNH2989INS TX34/1818Z TN25/1810Z
NOTAMs
Click for the latest NOTAMs
NOTAMs are issued by the DoD/FAA and will open in a separate window not controlled by AirNav.

 

 
 

Would you like to see your business listed on this page?

 If your business provides an interesting product or service to pilots, flight crews, aircraft, or users of the Choctaw Naval Outlying Field, you should consider listing it here.  To start the listing process, click on the button below
 
Add a business
 

Other Pages about Choctaw Naval Outlying Field

Update a link
 
Copyright © AirNav, LLC. All rights reserved. Privacy Policy  Contact